Location: Zlin
(49.2330°N, 17.6670°E)
Time: 05:03:48
(UTC+02:00)

N. Korean satellite - Visible Passes

Search period start: 07 October 2022 00:00
Search period end: 17 October 2022 00:00
Orbit: 425 x 467 km, 97.3° (Epoch: 06 October)

Date Brightness Start Highest point End Pass type
(mag) Time Alt. Az. Time Alt. Az. Time Alt. Az.
07 Oct 6.2 06:20:14 10° N 06:23:30 80° WNW 06:26:46 10° SSW visible
08 Oct 8.3 05:44:18 10° NNE 05:47:18 33° E 05:50:18 10° SSE visible
09 Oct 9.8 05:09:15 10° ENE 05:10:51 13° E 05:12:28 10° ESE visible
10 Oct 6.9 06:04:18 10° NNE 06:07:33 62° E 06:10:48 10° S visible
11 Oct 9.1 05:28:28 10° NE 05:31:05 22° E 05:33:41 10° SSE visible
12 Oct 6.2 06:24:12 10° N 06:27:28 71° WNW 06:30:44 10° SSW visible
13 Oct 8.0 05:47:53 10° NNE 05:50:58 37° E 05:54:02 10° SSE visible
14 Oct 9.7 05:12:21 10° ENE 05:14:13 14° E 05:16:04 10° SE visible
15 Oct 6.7 06:07:15 10° NNE 06:10:32 68° E 06:13:48 10° S visible
16 Oct 9.0 05:31:03 10° NE 05:33:45 23° E 05:36:28 10° SSE visible
